Weather History for Kaiser, MO

Change the Weather History Date:

Tuesday, June 18, 2013

  Actual Average Record
Temperature  
Mean Temperature 70 °F -  
Max Temperature 84 °F 80 °F 93 °F (2012)
Min Temperature 57 °F 60 °F 48 °F (1999)
Cooling Degree Days 6    
Growing Degree Days 20 (Base 50)    
Moisture  
Dew Point 62 °F    
Average Humidity 82    
Maximum Humidity 100    
Minimum Humidity 55    
Precipitation  
Precipitation 0.01 in - - ()
Sea Level Pressure  
Sea Level Pressure 30.01 in    
Wind  
Wind Speed 2 mph (WSW)    
Max Wind Speed 10 mph    
Max Gust Speed 16 mph    
Visibility 8 miles    
Events Thunderstorm    
Averages and records for this station are not official NWS values.
T = Trace of Precipitation, MM = Missing Value Source: NWS Daily Summary

Daily Weather History Graph

Daily Weather History Graph

Search for Another Location

Airport:

Trip Planner

Search our weather history database for the weather conditions in past years. The results will help you decide how hot, cold, wet, or windy it might be!

Date:

Astronomy

Jun. 18, 2013 Rise Set
Actual Time 5:47 AM CDT 8:35 PM CDT
Civil Twilight 5:15 AM CDT 9:07 PM CDT
Nautical Twilight 4:35 AM CDT 9:46 PM CDT
Astronomical Twilight 3:50 AM CDT 10:32 PM CDT
Moon 3:24 PM CDT (6/18) 1:51 AM CDT (6/18)
Length of Visible Light 15h 51m
Length of Day
14h 48m
Waxing Gibbous, 71% of the Moon is Illuminated
Jun 18
Waxing Gibbous
Jun 23
Full
Jun 29
Last Quarter
Jul 8
New
Jul 15
First Quarter

Hourly Weather History & Observations

Time (CDT) Temp. Heat Index Dew Point Humidity Pressure Visibility Wind Dir Wind Speed Gust Speed Precip Events Conditions
12:15 AM 62.6 °F - 60.8 °F 94% 29.97 in 10.0 mi Calm Calm - N/A   Unknown
12:35 AM 62.6 °F - 59.0 °F 88% 29.96 in 7.0 mi Calm Calm - N/A   Unknown
12:55 AM 60.8 °F - 59.0 °F 94% 29.97 in 10.0 mi Calm Calm - N/A   Unknown
1:15 AM 60.8 °F - 59.0 °F 94% 29.96 in 8.0 mi Calm Calm - N/A   Unknown
1:35 AM 60.8 °F - 57.2 °F 88% 29.97 in 5.0 mi Calm Calm - N/A   Unknown
1:55 AM 60.8 °F - 57.2 °F 88% 29.98 in 10.0 mi Calm Calm - N/A   Unknown
2:15 AM 60.8 °F - 57.2 °F 88% 29.98 in 10.0 mi Calm Calm - N/A   Unknown
2:35 AM 60.8 °F - 57.2 °F 88% 29.99 in 0.8 mi Calm Calm - N/A   Unknown
2:55 AM 60.8 °F - 57.2 °F 88% 30.00 in 0.8 mi West 3.5 mph - N/A   Unknown
3:15 AM 60.8 °F - 59.0 °F 94% 30.00 in 0.2 mi WSW 3.5 mph - N/A   Unknown
3:35 AM 60.8 °F - 57.2 °F 88% 29.99 in 0.5 mi Calm Calm - N/A   Unknown
3:55 AM 59.0 °F - 57.2 °F 94% 29.99 in 0.2 mi East 3.5 mph - N/A   Unknown
4:15 AM 59.0 °F - 57.2 °F 94% 29.99 in 0.5 mi Calm Calm - N/A   Unknown
4:35 AM 59.0 °F - 57.2 °F 94% 29.99 in 0.2 mi Calm Calm - N/A   Unknown
4:55 AM 59.0 °F - 57.2 °F 94% 29.99 in 0.2 mi Calm Calm - N/A   Unknown
5:15 AM 57.2 °F - 55.4 °F 94% 29.99 in 0.5 mi Calm Calm - N/A   Unknown
5:35 AM 59.0 °F - 57.2 °F 94% 30.00 in 0.2 mi Calm Calm - N/A   Unknown
5:55 AM 57.2 °F - 55.4 °F 94% 30.01 in 0.2 mi Calm Calm - N/A   Unknown
6:15 AM 57.2 °F - 55.4 °F 94% 30.02 in 2.0 mi Calm Calm - N/A   Unknown
6:35 AM 57.2 °F - 57.2 °F 100% 30.02 in 10.0 mi Calm Calm - N/A   Unknown
6:55 AM 59.0 °F - 57.2 °F 94% 30.01 in 10.0 mi Calm Calm - N/A   Unknown
7:15 AM 60.8 °F - 60.8 °F 100% 30.02 in 10.0 mi Calm Calm - N/A   Unknown
7:35 AM 62.6 °F - 60.8 °F 94% 30.01 in 10.0 mi Calm Calm - N/A   Unknown
7:55 AM 64.4 °F - 62.6 °F 94% 30.02 in 10.0 mi SW 3.5 mph - N/A   Unknown
8:15 AM 64.4 °F - 62.6 °F 94% 30.02 in 10.0 mi South 3.5 mph - N/A   Unknown
8:35 AM 66.2 °F - 62.6 °F 88% 30.03 in 10.0 mi WSW 3.5 mph - N/A   Unknown
8:55 AM 68.0 °F - 64.4 °F 88% 30.02 in 10.0 mi Calm Calm - N/A   Unknown
9:35 AM 71.6 °F - 66.2 °F 83% 30.03 in 10.0 mi West 5.8 mph - N/A   Unknown
9:55 AM 73.4 °F - 66.2 °F 78% 30.03 in 10.0 mi WSW 4.6 mph - N/A   Unknown
10:15 AM 73.4 °F - 66.2 °F 78% 30.03 in 10.0 mi West 5.8 mph - N/A   Unknown
10:35 AM 75.2 °F - 66.2 °F 73% 30.03 in 10.0 mi West 3.5 mph - N/A   Unknown
10:55 AM 77.0 °F - 69.8 °F 78% 30.04 in 10.0 mi WSW 3.5 mph - N/A   Unknown
11:15 AM 78.8 °F - 68.0 °F 69% 30.03 in 10.0 mi WSW 4.6 mph - N/A   Unknown
11:35 AM 78.8 °F - 69.8 °F 74% 30.03 in 10.0 mi West 5.8 mph - N/A   Unknown
11:55 AM 80.6 °F 83.9 °F 69.8 °F 70% 30.03 in 10.0 mi WNW 3.5 mph - N/A   Unknown
12:15 PM 80.6 °F 83.9 °F 69.8 °F 70% 30.03 in 10.0 mi WNW 4.6 mph - N/A   Unknown
12:35 PM 80.6 °F 83.2 °F 68.0 °F 65% 30.02 in 10.0 mi WSW 5.8 mph - N/A   Unknown
12:55 PM 82.4 °F 86.3 °F 69.8 °F 66% 30.02 in 10.0 mi North 3.5 mph - N/A   Unknown
1:15 PM 82.4 °F 86.3 °F 69.8 °F 66% 30.02 in 10.0 mi WNW 4.6 mph - N/A   Unknown
1:35 PM 82.4 °F 86.3 °F 69.8 °F 66% 30.02 in 10.0 mi NNW 3.5 mph - N/A   Unknown
1:55 PM 82.4 °F 85.4 °F 68.0 °F 62% 30.01 in 10.0 mi Calm Calm - N/A   Unknown
2:15 PM 84.2 °F 87.3 °F 68.0 °F 58% 30.00 in 10.0 mi North 3.5 mph - N/A   Unknown
2:35 PM 84.2 °F 86.6 °F 66.2 °F 55% 30.00 in 10.0 mi Calm Calm - N/A Thunderstorm Unknown
2:55 PM 80.6 °F 83.2 °F 68.0 °F 65% 30.01 in 10.0 mi North 5.8 mph - N/A Thunderstorm Thunderstorm
3:15 PM 69.8 °F - 59.0 °F 68% 30.00 in 10.0 mi WNW 10.4 mph 16.1 mph 0.01 in Thunderstorm Unknown
3:35 PM 66.2 °F - 60.8 °F 83% 30.02 in 10.0 mi West 9.2 mph - 0.01 in Thunderstorm Unknown
3:55 PM 66.2 °F - 60.8 °F 83% 30.01 in 10.0 mi SW 6.9 mph - 0.01 in   Unknown
4:15 PM 66.2 °F - 60.8 °F 83% 30.01 in 10.0 mi South 5.8 mph - N/A   Unknown
4:35 PM 68.0 °F - 60.8 °F 78% 30.01 in 10.0 mi SSE 3.5 mph - N/A   Unknown
4:55 PM 69.8 °F - 60.8 °F 73% 30.03 in 10.0 mi South 9.2 mph - N/A   Unknown
5:15 PM 69.8 °F - 60.8 °F 73% 30.01 in 10.0 mi South 6.9 mph - N/A   Unknown
5:35 PM 71.6 °F - 62.6 °F 73% 30.01 in 10.0 mi SSW 4.6 mph - N/A   Unknown
5:55 PM 71.6 °F - 60.8 °F 69% 30.00 in 10.0 mi WSW 4.6 mph - N/A   Unknown
6:15 PM 71.6 °F - 60.8 °F 69% 29.99 in 10.0 mi SSW 5.8 mph - N/A   Unknown
6:35 PM 71.6 °F - 60.8 °F 69% 30.00 in 10.0 mi SW 3.5 mph - N/A   Unknown
6:55 PM 71.6 °F - 60.8 °F 69% 30.00 in 10.0 mi SSW 3.5 mph - N/A   Unknown
7:15 PM 71.6 °F - 62.6 °F 73% 30.00 in 10.0 mi SW 4.6 mph - N/A   Unknown
7:35 PM 71.6 °F - 60.8 °F 69% 30.00 in 10.0 mi West 6.9 mph - N/A   Unknown
7:55 PM 69.8 °F - 62.6 °F 78% 30.01 in 10.0 mi West 4.6 mph - N/A   Unknown
8:15 PM 68.0 °F - 60.8 °F 78% 30.01 in 10.0 mi Calm Calm - N/A   Unknown
8:35 PM 68.0 °F - 60.8 °F 78% 30.00 in 10.0 mi Calm Calm - N/A   Unknown
8:55 PM 66.2 °F - 60.8 °F 83% 30.00 in 10.0 mi Calm Calm - N/A   Unknown
9:15 PM 64.4 °F - 60.8 °F 88% 30.01 in 10.0 mi Calm Calm - N/A   Unknown
9:35 PM 64.4 °F - 60.8 °F 88% 30.01 in 10.0 mi Calm Calm - N/A   Unknown
9:55 PM 64.4 °F - 60.8 °F 88% 30.01 in 10.0 mi Calm Calm - N/A   Unknown
10:15 PM 64.4 °F - 60.8 °F 88% 30.02 in 10.0 mi Calm Calm - N/A   Unknown
10:35 PM 62.6 °F - 60.8 °F 94% 30.02 in 2.5 mi Calm Calm - N/A   Unknown
10:55 PM 62.6 °F - 60.8 °F 94% 30.02 in 10.0 mi Calm Calm - N/A   Unknown
11:15 PM 62.6 °F - 60.8 °F 94% 30.02 in 10.0 mi Calm Calm - N/A   Unknown
11:35 PM 62.6 °F - 60.8 °F 94% 30.02 in 10.0 mi Calm Calm - N/A   Unknown
11:55 PM 62.6 °F - 60.8 °F 94% 30.02 in 10.0 mi Calm Calm - N/A   Unknown